User: anonymous   Login
Location: Unspecified
(0.0000°N, 0.0000°E)
Time: 20:00:08
(UTC+00:00)
Language:

A-11 Canister half - Orbit

View from above orbital plane
View from above orbital plane
View from above satellite
View from above satellite

Ground track
Ground track

The orbit data is extracted from the following two-line orbital elements,

1    53U 60009E   20223.52661024 +.00000003 +00000-0 +85113-3 0  9992
2    53 047.2768 092.2356 0097233 241.4559 117.6414 12.17242556675158
Epoch (UTC): 10 August 2020 12:38:19
Eccentricity: 0.0097233
inclination: 47.2768°
perigee height: 1527 km
apogee height: 1682 km
right ascension of ascending node: 92.2356°
argument of perigee: 241.4559°
revolutions per day: 12.17242556
mean anomaly at epoch: 117.6414°
orbit number at epoch: 67515

The dashed part of the orbit path shows where the satellite is in the earth's shadow,  

DLR